Wind_Speed
5 5 5 4 5 5 4 3 2 2 2 1 1 3 5 5 6 6 7 7 8 9 9 9 10 11 11 11 12 13 14 15 16 17 18 19 20 20 20 21 22 22 22 21 21 21 21 20 20
7 7 6 6 6 6 5 3 3 3 2 2 2 5 6 7 6 6 7 7 8 8 9 10 11 12 12 13 14 14 15 16 17 18 19 20 21 21 22 22 23 23 24 23 22 22 22 21 20
10 8 8 8 8 7 5 4 4 4 4 3 3 5 6 7 7 6 8 8 8 9 10 11 12 13 13 14 15 15 16 16 18 19 20 21 22 22 23 24 24 24 25 25 25 24 22 22 21
12 10 10 9 9 8 6 5 4 3 4 4 4 6 6 6 7 7 8 9 9 10 10 11 11 12 13 13 14 15 15 16 18 19 20 21 22 24 24 24 25 25 25 26 26 25 24 23 22
13 12 12 11 11 11 9 5 3 3 3 4 4 6 7 7 7 7 8 9 9 10 10 10 10 11 11 12 13 13 14 15 16 18 19 20 20 21 23 24 26 26 26 26 26 26 25 24 24
15 14 13 12 11 10 8 5 4 4 3 4 5 7 8 8 7 7 8 8 8 8 9 9 9 10 10 11 11 12 13 14 15 16 17 18 19 21 22 23 25 26 26 26 26 27 26 26 25
17 16 15 14 12 10 8 6 6 4 4 4 6 7 8 8 8 7 8 8 7 7 8 8 8 9 9 10 11 12 13 14 15 16 16 17 18 19 21 22 23 25 26 26 26 25 26 26 25
19 17 16 15 13 11 9 7 5 6 5 6 6 7 8 8 8 8 7 7 6 6 7 7 8 9 9 10 11 11 12 13 14 15 16 16 17 18 19 20 21 23 24 25 25 25 24 25 26
20 19 17 16 14 12 10 7 6 6 6 7 7 8 8 8 8 7 6 5 5 6 6 7 8 8 9 10 11 12 12 13 14 14 14 15 16 16 17 18 19 21 23 24 25 26 25 25 26
22 20 18 16 15 14 11 10 8 8 7 7 8 8 8 8 7 7 6 5 4 4 5 7 7 9 9 10 11 12 13 14 14 14 14 14 15 15 16 17 18 19 21 22 24 24 25 25 25
22 21 19 17 16 14 12 9 8 9 7 7 8 8 8 8 7 6 4 4 4 4 5 6 8 9 10 11 12 13 13 14 14 15 15 15 15 15 16 16 17 18 19 20 22 23 24 25 25
23 21 20 17 15 13 10 8 8 8 7 7 7 8 7 6 5 4 3 3 4 5 6 7 8 9 10 12 12 13 14 14 15 15 15 15 15 16 16 16 17 17 18 19 21 22 23 24 24
23 21 21 19 16 13 11 9 8 8 7 7 8 7 6 5 4 3 2 3 4 5 7 8 9 10 11 12 13 14 14 15 15 16 16 16 17 17 17 17 17 17 18 18 19 22 22 24 25
23 23 21 19 16 14 12 10 9 8 7 7 7 7 5 4 3 2 2 3 4 5 7 8 9 9 11 12 14 14 15 16 17 17 17 17 18 18 17 17 17 16 17 17 18 20 21 23 24
22 23 20 18 15 13 11 9 8 8 8 7 7 6 5 4 3 2 2 2 4 6 7 8 9 10 11 13 14 15 16 16 17 18 18 18 18 18 17 17 16 16 16 16 17 19 20 22 22
23 22 19 17 15 12 10 9 8 8 7 7 6 6 5 4 3 2 2 3 4 5 6 8 9 10 12 13 15 16 17 17 18 19 19 19 18 18 17 17 16 15 14 14 16 17 19 20 22
20 19 18 15 15 12 10 8 8 6 6 5 5 4 4 4 3 2 2 3 4 5 6 8 9 11 12 14 15 16 17 18 18 19 19 19 19 18 17 17 16 15 14 13 14 15 16 18 20
19 18 16 14 12 11 9 8 7 6 5 4 4 4 4 3 3 3 3 4 5 5 6 7 9 11 12 14 15 16 17 18 19 19 19 19 19 18 17 17 16 15 13 13 12 13 14 16 18
17 16 14 12 11 10 8 7 6 5 4 4 3 3 3 3 3 3 3 4 5 5 6 8 9 11 12 14 15 16 17 18 19 19 19 19 19 18 18 17 16 14 13 12 11 11 12 14 16
17 13 12 11 10 8 6 6 5 4 4 3 3 3 3 3 3 3 4 5 5 5 7 8 9 11 12 14 15 16 17 18 19 19 19 19 19 19 18 17 16 14 12 10 10 10 10 12 15
13 11 10 9 9 8 6 5 4 4 4 2 2 2 2 3 3 3 4 5 5 6 7 8 9 11 12 13 15 16 17 18 18 19 19 19 19 19 18 17 16 14 12 10 9 8 9 11 12
12 10 8 7 8 6 6 4 5 4 3 2 2 2 2 2 3 4 5 5 5 6 7 8 9 11 12 13 15 16 17 18 18 19 19 19 19 19 18 18 16 14 12 10 8 7 7 9 11
11 9 7 6 7 5 5 4 3 3 3 2 2 2 2 3 4 4 4 5 6 6 7 8 9 11 12 13 14 15 16 17 18 18 19 19 19 19 18 17 16 14 12 10 8 6 6 8 9
10 10 8 6 6 4 3 3 3 2 2 1 1 1 2 3 4 4 5 5 6 6 7 8 9 10 11 12 14 15 16 17 17 18 18 19 19 18 18 17 16 14 12 11 8 6 6 7 7
10 10 7 6 5 3 3 3 2 2 2 1 1 2 2 3 4 4 5 6 6 7 7 8 9 10 11 12 13 15 15 16 17 17 18 18 18 19 18 17 15 14 12 11 9 7 5 5 6
9 8 7 6 4 4 3 2 1 1 1 2 1 2 3 3 4 5 6 6 7 7 7 8 9 10 11 12 13 15 15 16 16 16 17 17 18 18 18 17 15 14 13 11 9 7 5 4 5
8 6 6 5 4 4 3 1 0 1 3 3 3 3 4 5 6 6 7 7 7 7 7 8 9 10 11 12 13 14 15 15 16 16 16 17 17 17 17 17 16 14 12 11 10 8 6 4 4
7 6 5 5 5 5 3 2 2 3 4 4 4 4 5 6 7 7 8 8 8 8 8 8 9 10 11 12 13 14 14 15 15 15 16 16 17 17 17 17 16 14 13 11 10 9 6 4 3
6 5 5 5 5 5 4 3 3 4 5 5 5 6 7 7 8 8 8 9 9 9 9 9 9 10 11 11 13 14 14 14 14 14 15 15 16 16 16 16 16 15 14 12 10 9 7 5 4
5 4 5 5 5 5 5 4 5 6 6 6 7 7 8 9 9 9 9 10 10 10 10 10 10 11 11 12 13 14 14 14 14 14 14 14 15 15 15 15 15 15 14 12 11 9 8 6 4
Wind_Direction
261 269 284 293 306 315 320 300 302 304 321 319 276 274 268 279 285 284 290 292 291 294 297 297 295 293 288 283 280 279 274 271 267 266 266 265 262 259 258 258 257 256 256 256 258 259 260 261 263
251 255 266 276 288 299 309 289 293 331 335 317 293 293 291 279 284 288 293 295 294 295 297 296 293 291 288 286 283 281 278 275 271 268 268 267 265 262 261 259 258 256 256 256 257 259 260 260 261
246 250 259 267 277 289 289 293 305 306 314 310 293 290 290 287 288 290 292 295 296 295 295 295 294 293 292 289 287 285 283 278 274 271 270 267 266 264 263 260 259 257 257 257 256 258 259 258 259
243 244 253 260 270 281 277 275 289 291 296 301 299 294 293 291 289 289 291 295 296 295 297 300 298 296 295 294 292 289 286 282 278 275 273 271 268 267 263 260 260 259 258 258 257 257 257 258 258
239 241 248 258 270 274 274 273 288 288 280 288 294 292 296 294 291 291 294 296 297 299 303 304 303 301 300 300 299 296 292 288 284 280 277 275 272 270 267 262 261 260 258 257 256 256 256 256 256
237 239 245 254 264 270 275 277 290 294 289 301 298 292 296 297 293 296 302 302 304 307 311 311 310 309 309 308 306 303 299 296 292 288 284 280 277 274 271 268 264 261 259 256 255 255 255 255 253
237 238 243 251 262 271 274 276 281 286 290 296 296 292 291 291 291 295 301 303 305 309 314 317 320 321 319 315 313 311 309 305 301 296 291 286 283 281 277 273 269 264 260 257 257 254 254 253 252
236 238 242 249 258 265 267 267 277 284 292 296 295 290 287 290 291 296 303 301 306 315 323 328 330 330 326 324 322 321 317 314 309 303 298 292 288 284 281 277 272 266 261 258 257 254 253 252 251
235 236 239 245 254 261 261 262 272 281 289 294 298 298 292 292 292 298 302 301 306 318 327 332 335 334 333 332 330 328 327 323 319 314 307 301 296 290 285 281 277 270 263 258 256 254 253 251 248
233 234 238 245 254 258 262 262 267 274 285 291 294 298 298 295 293 301 304 300 311 325 334 337 337 338 338 339 338 335 333 330 326 321 315 309 303 297 291 286 282 275 267 261 257 254 253 249 246
232 232 236 241 250 251 256 263 263 272 276 281 289 294 298 298 299 302 303 308 323 336 339 337 336 339 341 341 340 339 337 334 331 327 321 314 308 302 297 291 286 279 270 262 256 253 250 246 243
227 228 231 234 240 246 259 261 270 272 270 276 287 294 295 300 305 297 294 310 325 331 335 338 339 342 344 343 343 341 339 338 335 331 327 322 317 311 304 296 291 283 274 265 255 253 249 245 242
223 223 228 229 234 244 246 250 261 268 270 275 284 293 296 295 295 284 288 311 324 328 335 340 343 346 347 346 345 344 343 341 338 336 332 326 322 316 310 304 297 289 278 269 261 254 249 244 242
220 221 224 228 231 236 243 251 258 266 271 273 279 287 287 293 281 268 278 313 326 331 335 341 347 348 347 346 346 346 345 343 341 339 335 329 324 320 314 309 303 295 283 271 263 256 250 245 241
216 218 221 224 228 234 240 247 256 261 267 271 276 282 278 283 266 256 275 313 330 334 338 341 345 346 345 346 347 347 346 344 341 339 337 334 330 325 322 315 308 299 289 275 265 257 250 244 240
215 219 222 225 226 226 233 240 251 260 262 266 270 275 279 273 254 257 289 318 328 337 341 341 343 344 345 346 348 348 347 346 343 342 341 338 335 331 327 322 316 306 296 283 271 261 253 245 239
213 217 222 225 227 229 231 234 240 250 255 259 264 264 267 260 248 258 305 323 330 340 342 342 344 346 346 347 348 349 348 348 346 344 344 342 340 337 332 327 322 314 303 291 278 264 255 246 238
210 214 218 224 220 222 223 228 235 243 248 260 263 261 261 259 259 273 309 326 335 341 342 342 346 348 347 347 348 348 348 348 348 347 345 344 343 341 338 333 328 321 309 298 284 269 255 243 236
203 208 214 215 211 211 214 223 231 233 242 252 249 243 243 258 273 281 313 325 332 335 339 341 346 346 345 346 347 347 348 348 348 348 347 347 346 344 341 338 332 326 317 304 289 272 257 241 234
198 202 206 209 208 204 204 209 213 211 222 233 238 234 239 267 276 280 306 318 325 330 334 337 340 341 342 344 347 347 347 347 348 348 348 347 346 346 344 341 338 333 327 313 297 276 257 244 236
184 189 195 198 197 202 198 192 198 201 205 205 215 231 249 255 261 283 301 309 315 322 327 331 336 339 340 342 345 346 346 347 349 350 349 347 347 347 346 343 341 337 332 322 305 282 255 246 238
182 180 171 170 174 177 183 184 198 187 186 183 204 223 241 246 269 284 290 301 308 312 319 326 331 334 337 341 343 345 346 348 350 350 350 349 348 348 348 346 344 341 336 329 315 289 261 248 241
168 164 162 160 157 165 172 174 185 172 158 164 176 222 243 256 262 274 288 297 305 308 315 322 327 331 336 340 342 344 346 347 349 351 351 351 351 350 349 349 348 346 341 335 324 301 268 253 245
150 155 161 161 157 157 168 165 152 153 141 143 185 243 262 270 278 276 287 294 301 306 312 320 326 330 335 339 341 343 345 346 348 350 352 353 353 353 351 351 350 349 346 341 333 317 281 257 246
148 155 155 154 158 163 156 153 132 121 118 120 245 279 289 278 282 282 286 296 299 302 309 317 323 329 333 337 339 342 343 346 348 350 352 354 356 356 354 353 353 352 351 349 343 332 303 265 246
148 155 158 161 167 158 150 149 128 53 24 356 312 291 288 284 283 286 288 292 295 301 307 313 321 327 331 335 338 340 341 344 347 350 352 355 356 358 358 358 357 356 355 352 349 342 323 288 253
150 155 160 162 168 178 185 178 348 340 334 328 319 303 302 296 290 289 286 286 290 296 303 310 318 323 328 334 337 339 340 343 346 349 352 355 357 359 1 2 1 358 356 355 353 350 340 312 270
158 168 171 170 172 181 186 224 277 298 304 309 310 301 297 297 294 291 287 287 289 292 297 304 311 318 325 331 335 337 339 341 343 347 351 354 356 360 1 2 3 1 358 356 357 357 351 333 295
169 180 193 199 203 213 220 246 279 286 291 301 307 304 298 297 295 292 289 288 289 289 292 297 303 311 320 326 332 336 338 339 341 344 348 351 354 357 360 2 4 4 4 1 359 360 355 346 322
179 190 208 224 233 246 254 255 273 285 293 297 300 301 299 297 295 291 288 284 283 285 289 292 297 304 311 319 326 332 336 339 340 341 344 348 351 354 357 1 3 5 6 6 4 2 3 356 340
Height
5880 5879 5879 5880 5879 5878 5877 5877 5876 5876 5876 5876 5876 5875 5875 5876 5876 5878 5875 5873 5873 5872 5871 5870 5870 5869 5868 5867 5867 5866 5866 5866 5865 5865 5865 5865 5864 5864 5864 5864 5864 5864 5865 5865 5865 5865 5865 5865 5866
5878 5878 5879 5879 5878 5877 5876 5875 5875 5875 5876 5875 5874 5874 5873 5874 5874 5873 5872 5871 5871 5870 5869 5868 5868 5867 5866 5865 5864 5864 5863 5862 5862 5862 5861 5861 5861 5860 5860 5860 5860 5861 5861 5861 5861 5862 5862 5862 5863
5877 5877 5877 5877 5876 5876 5875 5874 5874 5874 5874 5874 5874 5873 5872 5872 5872 5871 5870 5869 5869 5869 5868 5867 5865 5864 5863 5862 5862 5861 5860 5859 5859 5858 5857 5857 5857 5857 5856 5856 5856 5856 5857 5857 5857 5858 5858 5859 5860
5875 5875 5876 5875 5874 5874 5873 5874 5873 5873 5873 5873 5873 5872 5871 5871 5871 5870 5868 5867 5867 5866 5865 5864 5863 5862 5861 5860 5859 5858 5856 5856 5855 5854 5853 5853 5852 5852 5851 5851 5852 5852 5852 5853 5853 5854 5854 5855 5856
5872 5873 5873 5873 5872 5872 5872 5871 5871 5871 5872 5872 5872 5870 5870 5870 5869 5868 5867 5866 5865 5864 5863 5862 5861 5859 5858 5857 5856 5855 5853 5852 5851 5850 5849 5848 5848 5847 5847 5847 5847 5847 5847 5848 5848 5849 5850 5851 5852
5869 5870 5871 5870 5870 5870 5869 5870 5870 5870 5871 5870 5870 5869 5868 5868 5867 5866 5865 5864 5863 5862 5861 5860 5859 5857 5856 5855 5853 5852 5850 5849 5847 5846 5845 5844 5843 5843 5842 5842 5842 5842 5842 5843 5843 5844 5845 5847 5848
5867 5867 5868 5868 5868 5868 5868 5867 5868 5869 5869 5869 5868 5867 5867 5866 5865 5865 5863 5862 5861 5860 5859 5858 5857 5855 5854 5852 5851 5849 5848 5846 5844 5843 5841 5840 5839 5838 5837 5837 5837 5837 5837 5837 5838 5839 5840 5842 5843
5862 5865 5865 5866 5866 5866 5866 5866 5866 5867 5867 5867 5867 5866 5865 5864 5863 5862 5862 5860 5859 5859 5858 5856 5855 5853 5852 5850 5849 5847 5845 5843 5841 5840 5838 5837 5835 5834 5833 5832 5832 5831 5831 5832 5833 5834 5835 5836 5838
5858 5862 5862 5863 5864 5864 5864 5864 5865 5865 5866 5865 5864 5864 5863 5862 5862 5861 5860 5859 5858 5857 5856 5855 5853 5852 5850 5848 5847 5845 5843 5841 5839 5837 5835 5833 5831 5830 5829 5828 5827 5826 5826 5827 5828 5828 5830 5831 5833
5854 5858 5859 5860 5861 5862 5862 5862 5863 5864 5864 5863 5863 5862 5861 5860 5859 5859 5858 5857 5856 5856 5855 5853 5852 5850 5848 5847 5845 5843 5841 5838 5836 5834 5832 5830 5828 5826 5825 5823 5822 5821 5821 5821 5822 5823 5824 5825 5827
5851 5854 5855 5857 5857 5858 5859 5860 5860 5861 5861 5861 5861 5860 5859 5858 5857 5857 5856 5855 5855 5854 5854 5852 5851 5849 5847 5846 5843 5841 5839 5836 5834 5831 5829 5826 5824 5822 5821 5819 5818 5817 5816 5816 5816 5817 5819 5820 5822
5847 5849 5851 5853 5853 5855 5856 5857 5858 5859 5859 5859 5859 5858 5857 5857 5856 5856 5855 5854 5854 5853 5852 5851 5849 5848 5846 5844 5842 5839 5837 5834 5831 5829 5826 5823 5821 5819 5817 5815 5813 5812 5811 5811 5811 5812 5813 5814 5816
5842 5845 5848 5850 5851 5852 5853 5854 5855 5856 5856 5857 5856 5856 5856 5855 5855 5855 5854 5853 5853 5852 5851 5849 5848 5846 5844 5842 5840 5837 5835 5832 5829 5826 5823 5820 5817 5815 5813 5811 5809 5807 5806 5806 5806 5806 5807 5809 5811
5837 5841 5844 5846 5848 5849 5851 5852 5853 5853 5854 5854 5854 5854 5854 5853 5853 5853 5853 5852 5851 5850 5849 5848 5846 5845 5843 5840 5838 5835 5832 5829 5826 5823 5820 5817 5814 5811 5809 5806 5804 5802 5801 5800 5800 5801 5802 5803 5805
5833 5837 5841 5843 5845 5847 5848 5850 5850 5851 5852 5852 5852 5852 5852 5852 5852 5852 5851 5851 5850 5849 5848 5846 5845 5843 5841 5839 5836 5833 5830 5827 5824 5821 5817 5814 5810 5807 5805 5802 5800 5798 5796 5795 5795 5795 5796 5798 5799
5830 5835 5838 5840 5843 5844 5848 5848 5849 5849 5850 5850 5851 5850 5850 5850 5850 5850 5850 5849 5848 5847 5846 5845 5843 5841 5839 5837 5834 5831 5828 5825 5822 5818 5814 5811 5808 5804 5801 5799 5796 5794 5792 5791 5790 5791 5791 5792 5794
5829 5832 5835 5838 5840 5842 5844 5846 5847 5847 5848 5848 5849 5849 5849 5849 5849 5849 5849 5848 5847 5846 5845 5844 5842 5840 5838 5835 5833 5830 5827 5823 5820 5816 5812 5809 5805 5802 5798 5796 5793 5790 5789 5787 5786 5786 5786 5787 5789
5828 5831 5834 5836 5839 5841 5842 5844 5845 5845 5846 5846 5847 5847 5847 5848 5848 5848 5847 5846 5845 5844 5843 5842 5840 5839 5836 5834 5831 5828 5825 5822 5818 5814 5810 5807 5803 5799 5796 5793 5790 5787 5785 5784 5783 5782 5782 5783 5785
5826 5829 5832 5835 5837 5839 5841 5842 5843 5843 5844 5844 5845 5845 5846 5846 5846 5846 5845 5845 5844 5843 5842 5841 5839 5837 5835 5833 5830 5827 5824 5820 5816 5813 5809 5805 5801 5798 5794 5791 5787 5785 5782 5780 5779 5779 5779 5780 5781
5825 5829 5831 5834 5836 5838 5839 5840 5841 5842 5842 5843 5843 5844 5845 5845 5845 5844 5844 5843 5843 5842 5841 5840 5838 5836 5834 5831 5829 5825 5822 5819 5815 5811 5807 5804 5800 5796 5792 5789 5785 5782 5780 5778 5776 5776 5776 5776 5778
5825 5828 5831 5832 5834 5836 5838 5839 5840 5840 5841 5841 5842 5843 5843 5843 5843 5843 5843 5842 5841 5841 5840 5838 5837 5835 5833 5830 5827 5824 5821 5817 5814 5810 5806 5802 5798 5795 5791 5787 5784 5780 5778 5775 5774 5773 5773 5773 5775
5825 5828 5830 5831 5833 5835 5837 5839 5839 5839 5840 5840 5841 5841 5842 5842 5842 5842 5841 5841 5840 5840 5838 5837 5835 5833 5831 5828 5826 5823 5820 5816 5812 5809 5805 5801 5797 5793 5789 5785 5782 5779 5776 5774 5772 5771 5771 5771 5772
5825 5828 5830 5831 5833 5835 5836 5837 5839 5838 5838 5839 5839 5840 5840 5841 5840 5840 5840 5839 5839 5838 5837 5835 5834 5832 5830 5827 5824 5821 5818 5815 5811 5808 5804 5800 5796 5792 5788 5784 5781 5777 5774 5772 5770 5769 5769 5769 5769
5826 5828 5830 5832 5833 5834 5835 5836 5838 5837 5837 5837 5838 5838 5838 5838 5838 5838 5838 5838 5837 5836 5835 5834 5832 5830 5828 5826 5823 5820 5817 5814 5810 5806 5803 5799 5795 5791 5787 5783 5779 5776 5773 5771 5769 5767 5767 5767 5767
5827 5829 5831 5832 5833 5834 5834 5835 5836 5836 5836 5836 5837 5837 5837 5837 5837 5837 5836 5836 5835 5835 5834 5832 5831 5829 5827 5824 5822 5819 5816 5813 5809 5805 5802 5798 5794 5790 5786 5782 5779 5776 5773 5770 5768 5766 5765 5765 5765
5827 5830 5832 5833 5833 5833 5833 5833 5835 5834 5835 5835 5835 5835 5835 5835 5835 5835 5834 5834 5834 5833 5832 5831 5829 5827 5825 5823 5820 5818 5815 5811 5808 5804 5801 5797 5793 5789 5785 5782 5778 5775 5772 5770 5767 5765 5764 5764 5764
5828 5829 5831 5832 5832 5832 5832 5833 5833 5833 5833 5834 5834 5834 5834 5834 5834 5833 5833 5832 5832 5831 5830 5829 5827 5826 5824 5821 5819 5816 5813 5810 5807 5803 5800 5796 5793 5789 5785 5781 5778 5775 5772 5769 5767 5765 5763 5763 5762
5828 5829 5830 5831 5831 5831 5832 5832 5833 5833 5832 5832 5832 5833 5833 5832 5832 5831 5831 5830 5829 5829 5828 5827 5825 5824 5822 5820 5817 5815 5812 5809 5805 5802 5799 5796 5792 5789 5785 5782 5778 5775 5772 5769 5767 5764 5763 5762 5761
5828 5829 5829 5829 5830 5831 5831 5834 5832 5831 5831 5831 5831 5831 5831 5830 5830 5829 5828 5828 5827 5827 5826 5825 5824 5822 5820 5818 5816 5813 5810 5807 5804 5801 5798 5795 5792 5788 5785 5782 5778 5775 5772 5769 5767 5764 5763 5761 5761
5826 5827 5828 5829 5829 5829 5829 5833 5830 5829 5829 5829 5829 5829 5828 5828 5827 5826 5826 5825 5825 5824 5823 5822 5821 5820 5818 5816 5814 5811 5808 5805 5803 5800 5797 5794 5791 5788 5785 5781 5778 5775 5772 5769 5767 5765 5763 5761 5760